Checkflüge: IR Check Flight SEP

Flugschule

Flugschule

Wir bieten eine professionelle und umfassende Ausbildung.

Flugwetter Augsburg

[Quelle: ADDS]
METAR
EDMA 290550Z 16003KT CAVOK 17/15 Q1017 =
EDMA 290500Z 2906/2915 16004KT 9999 SCT030 BECMG 2906/2908 25008KT
TAF
EDMA 290500Z 2906/2915 16004KT 9999 SCT030 BECMG 2906/2908 25008KT =

Kontakt

Checkflüge: IR Check Flight SEP

Zwei flinke Boxer jagen die quirlige Eva und ihren Mops durch Sylt. Franz jagt im komplett verwahrlosten Taxi quer durch Bayern. Zwölf Boxkämpfer jagen Viktor quer über den großen Sylter Deich. Vogel Quax zwickt Johnys Pferd Bim.

Sylvia wagt quick den Jux bei Pforzheim. Polyfon zwitschernd aßen Mäxchens Vögel Rüben, Joghurt und Quark. "Fix, Schwyz! " quäkt Jürgen blöd vom Paß. Victor jagt zwölf Boxkämpfer quer über den großen Sylter Deich.

Falsches Üben von Xylophonmusik quält jeden größeren Zwerg. Heizölrückstoßabdämpfung. Zwei flinke Boxer jagen die quirlige Eva und ihren Mops durch Sylt. Franz jagt im komplett verwahrlosten Taxi quer durch Bayern.

Zwölf Boxkämpfer jagen Viktor quer über den großen Sylter Deich. Vogel Quax zwickt Johnys Pferd Bim. Sylvia wagt quick den Jux bei Pforzheim. Polyfon zwitschernd aßen Mäxchens Vögel Rüben, Joghurt und Quark. "Fix, Schwyz!

" quäkt Jürgen blöd vom Paß. Victor jagt zwölf Boxkämpfer quer über den großen Sylter Deich. Falsches Üben von Xylophonmusik quält jeden größeren Zwerg. Heizölrückstoßabdämpfung. Zwei flinke Boxer jagen die quirlige Eva und ihren Mops durch Sylt. Franz jagt im komplett verwahrlosten Taxi quer durch Bayern. Zwölf Boxkämpfer jagen Viktor quer über den großen Sylter Deich. Vogel Quax zwickt Johnys Pferd Bim. Sylvia wagt quick den Jux